Home   Weather   Granby   Past weeks

Flag for Canada Past Weather in Granby, Quebec, Canada — Yesterday and Last 2 Weeks

Now
16 °F

Cold.


Feels Like: 16 °F
Forecast: 11 / 19 °F
Wind: 2 mph from North

Location: Frelighsburg

Current Time: Dec 10, 2016 at 9:42:46 am

Latest Report: Dec 10, 2016 at 9:00 am


Visibility: N/A

Pressure: 30.31 "Hg

Humidity: 68%

Dew Point: 7 °F

Location of GranbyLocation

Past Weather in Granby — Graph

°F

Granby Temperature Yesterday

Maximum temperature yesterday: 27 °F (at 12:00 am)
Minimum temperature yesterday: 16 °F (at 9:00 pm)
Average temperature yesterday: 21 °F

High & Low Weather Summary for the Past Weeks

 TemperatureHumidityPressure
High48 °F (Nov 30, 1:00 pm)100% (Nov 25, 2:00 pm)30.30 "Hg (Nov 25, 2:00 pm)
Low13 °F (Dec 10, 8:00 am)58% (Dec 10, 1:00 am)29.36 "Hg (Dec 1, 3:00 am)
Average32 °F90%29.94 "Hg
* Reported Nov 25 8:00 am — Dec 10 8:00 am, Granby, Weather by CustomWeather, © 2016

Note: Actual official high and low records may vary slightly from our data, if they occured in-between our weather recording intervals... More about our weather records

Advertising

Granby Weather History for the Previous 24 Hours

Scroll right to see more
 ConditionsComfort  
Time TempWeatherWind HumidityBarometerVisibility
8:00 am
Sat, Dec 10
13 °FCold.1 mph81%30.30 "HgN/A
7:00 am14 °FCold.2 mph71%30.29 "HgN/A
6:00 am14 °FCold.7 mph69%30.27 "HgN/A
5:00 am15 °FCold.8 mph66%30.25 "HgN/A
4:00 am16 °FCold.5 mph64%30.24 "HgN/A
3:00 am16 °FCold.5 mph61%30.23 "HgN/A
2:00 am16 °FCold.7 mph60%30.22 "HgN/A
1:00 am17 °FCold.8 mph58%30.20 "HgN/A
12:00 am17 °FCold.5 mph64%30.19 "HgN/A
11:00 pm
Fri, Dec 9
17 °FCold.3 mph65%30.19 "HgN/A
10:00 pm16 °FCold.5 mph64%30.19 "HgN/A
9:00 pm16 °FCold.5 mph66%30.18 "HgN/A
8:00 pm18 °FCold.10 mph61%30.16 "HgN/A
7:00 pm20 °FCold.8 mph61%30.14 "HgN/A
6:00 pm21 °FCold.7 mph66%30.11 "HgN/A
5:00 pm21 °FCold.6 mph69%30.09 "HgN/A
4:00 pm21 °FCold.7 mph69%30.06 "HgN/A
3:00 pm22 °FCold.9 mph75%30.03 "HgN/A
2:00 pm22 °FCold.6 mph73%30.01 "HgN/A
1:00 pm21 °FCold.7 mph80%29.99 "HgN/A
12:00 pm22 °FCold.8 mph70%29.97 "HgN/A
11:00 am22 °FCold.7 mph75%29.98 "HgN/A
10:00 am21 °FCold.6 mph79%29.97 "HgN/A
9:00 am21 °FCold.6 mph82%29.95 "HgN/A
Weather by CustomWeather, © 2016

See weather overviewHow to use our weather pages